Regional Weather Roundup
Issued by NWS

Home | Current Version | Previous Version | Graphics & Text | Print | Product List | Glossary On
Versions: 1 2 3 4 5 6 7 8 9 10 11 12 13 14 15 16 17 18 19 20 21 22 23 24 25 26 27
000
ASUS45 KBOI 211710
RWRID

IDAHO REGIONAL WEATHER ROUNDUP
NATIONAL WEATHER SERVICE BOISE ID
1100 AM MDT FRI JUL 21 2017

NOTE: "FAIR" INDICATES FEW OR NO CLOUDS BELOW 12000 FEET
WITH NO SIGNIFICANT WEATHER AND/OR OBSTRUCTIONS TO VISIBILITY

IDZ012-014-211800-
SOUTHWEST IDAHO


CITY           SKY/WX    TMP DP  RH WIND       PRES   REMARKS
BOISE          SUNNY     75  45  34 NW7       30.09S
CALDWELL       SUNNY     76  46  34 NW8       30.09S HAZE
MOUNTAIN HOME  SUNNY     80  44  27 NW9       30.09R
$$

IDZ016-017-211800-
SOUTHCENTRAL IDAHO


CITY           SKY/WX    TMP DP  RH WIND       PRES   REMARKS
BURLEY         SUNNY     74  45  35 VRB6      30.13F
JEROME         SUNNY     72  44  36 SW7       30.15S
TWIN FALLS     SUNNY     77  45  32 W10       30.15S
$$

IDZ019>023-211800-
SOUTHEAST IDAHO


CITY           SKY/WX    TMP DP  RH WIND       PRES   REMARKS
IDAHO FALLS    SUNNY     73  48  41 W6        30.17S
POCATELLO      SUNNY     78  43  28 W7        30.16S
REXBURG        SUNNY     73  45  36 SW6       30.17S
$$

IDZ006-010-011-018-031-032-211800-
CENTRAL IDAHO MOUNTAINS


CITY           SKY/WX    TMP DP  RH WIND       PRES   REMARKS
MCCALL         SUNNY     70  41  34 VRB3      30.19S
HAILEY         SUNNY     75  39  27 W6        30.20F
STANLEY          N/A     68  34  28 N3        30.29S
SALMON         NOT AVBL
CHALLIS        SUNNY     70  35  27 NE6       30.19F
$$

IDZ002-004-006-007-026-211800-
NORTHERN IDAHO


CITY           SKY/WX    TMP DP  RH WIND       PRES   REMARKS
LEWISTON       SUNNY     73  44  35 VRB3      30.13S
LOWELL           N/A     68  43  40 N3        30.12F
COEUR D`ALENE  SUNNY     68  45  43 CALM      30.15R
MULLAN PASS    SUNNY     56  37  49 VRB3      30.23R
$$




USA.gov is the U.S. government's official web portal to all federal, state and local government web resources and services.